Regional Weather Roundup
Issued by NWS

Home | Current Version | Previous Version | Text Only | Print | Product List | Glossary On
Versions: 1 2 3 4 5 6 7 8 9 10 11 12 13 14 15 16 17 18 19 20 21 22 23 24 25 26 27 28 29 30 31 32 33 34 35 36 37 38 39 40 41 42 43 44 45 46 47 48 49 50
000
ASUS43 KTOP 190708
RWRKS

WEATHER ROUNDUP FOR KANSAS
NATIONAL WEATHER SERVICE GOODLAND KS
200 AM CDT THU APR 19 2018

NOTE:  "FAIR" INDICATES FEW OR NO CLOUDS BELOW 12,000 FEET WITH NO
SIGNIFICANT WEATHER AND/OR OBSTRUCTIONS TO VISIBILITY.

KSZ001>006-013>018-027>032-041>047-190800-
NORTHWEST KANSAS

CITY           SKY/WX    TMP DP  RH WIND       PRES   REMARKS
GOODLAND       PTCLDY    31  23  72 S10       30.31R WCI  22
HAYS           CLEAR     33  26  75 W3        30.33R
HILL CITY      CLEAR     30  25  81 CALM      30.32R
RUSSELL        CLEAR     35  29  78 NW5       30.30R
$$

KSZ061>065-074>080-084>089-190800-
SOUTHWEST KANSAS

CITY           SKY/WX    TMP DP  RH WIND       PRES   REMARKS
DODGE CITY     CLEAR     37  26  64 E3        30.32R
ELKHART        CLEAR     39  17  41 SE7       30.32R
GARDEN CITY    CLEAR     34  23  64 E7        30.32R
GREAT BEND     CLEAR     32  25  75 N5        30.32R
LIBERAL        CLEAR     43  24  47 E10       30.33R
PRATT          CLEAR     36  26  66 N5        30.32R
$$

KSZ066>073-081>083-090>101-190800-
SOUTHEAST KANSAS

CITY           SKY/WX    TMP DP  RH WIND       PRES   REMARKS
CHANUTE        CLEAR     37  26  64 CALM      30.28R
COFFEYVILLE    CLEAR     40  29  64 N10       30.29R WCI  33
HUTCHINSON     CLEAR     36  28  73 N5        30.30R
MEDICINE LODGE   N/A     38  29  70 N5        30.31R
NEWTON         CLOUDY    33  26  75 N6        30.30R
PARSONS        CLEAR     38  27  64 CALM      30.30R
WICHITA INTL   CLEAR     41  29  62 N6        30.30R
WICHITA JABRA  CLEAR     35  28  75 N3        30.30R
WICHITA MCCONL CLEAR     38  27  64 NE7       30.30R
WINFIELD       CLEAR     37  29  72 N6        30.31R
$$

KSZ007>012-019>026-033>040-048>060-102>105-190800-
NORTHEAST KANSAS

CITY           SKY/WX    TMP DP  RH WIND       PRES   REMARKS
CONCORDIA      PTCLDY    31  25  78 W7        30.30S
EMPORIA        CLOUDY    33  25  72 W5        30.28R
LAWRENCE       CLOUDY    35  28  75 NW5       30.26R
MANHATTAN      CLEAR     36  26  67 CALM      30.29S
MARYSVILLE     CLEAR     32  30  93 NW9       30.28R
OLATHE IND     CLOUDY    36  28  73 W7        30.25S
OLATHE EXE     CLOUDY    36  27  69 NW8       30.24R
SALINA         CLEAR     36  27  69 NW6       30.32R
TOPEKA BILLARD CLOUDY    37  28  70 W7        30.27R
TOPEKA FORBES  CLEAR     32  26  78 W7        30.26R
$$




USA.gov is the U.S. government's official web portal to all federal, state and local government web resources and services.